Weather History for LTBA - July, 2012

Change the Weather History Date:

Monday, July 2, 2012

  Actual Average Record
Temperature  
Mean Temperature 78 °F -  
Max Temperature 85 °F 83 °F 89 °F (1996)
Min Temperature 72 °F 69 °F 65 °F (2013)
Cooling Degree Days 14    
Growing Degree Days 28 (Base 50)    
Moisture  
Dew Point 55 °F    
Average Humidity 46    
Maximum Humidity 64    
Minimum Humidity 21    
Precipitation  
Precipitation 0.00 in - - ()
Sea Level Pressure  
Sea Level Pressure 30.05 in    
Wind  
Wind Speed 12 mph ()    
Max Wind Speed 22 mph    
Max Gust Speed 33 mph    
Visibility 6.2 miles    
Events      
Averages and records for this station are not official NWS values.
T = Trace of Precipitation, MM = Missing Value Source: Averaged Metar Reports

Daily Weather History Graph

Daily Weather History Graph

Search for Another Location

Airport or City:

Trip Planner

Search our weather history database for the weather conditions in past years. The results will help you decide how hot, cold, wet, or windy it might be!

Date:

Astronomy

Jul. 02, 2012 Rise Set
Actual Time 5:37 AM EEST 8:40 PM EEST
Civil Twilight 5:03 AM EEST 9:13 PM EEST
Nautical Twilight 4:21 AM EEST 9:56 PM EEST
Astronomical Twilight 3:30 AM EEST 10:46 PM EEST
Moon 7:24 PM EEST (7/2) 4:03 AM EEST (7/2)
Length of Visible Light 16h 10m
Length of Day
15h 03m
Waxing Gibbous, 97% of the Moon is Illuminated
Jul 2
Waxing Gibbous
Jul 3
Full
Jul 11
Last Quarter
Jul 19
New
Jul 26
First Quarter

Hourly Weather History & Observations

Time (EEST) Temp. Dew Point Humidity Pressure Visibility Wind Dir Wind Speed Gust Speed Precip Events Conditions
12:20 AM 73.4 °F 59.0 °F 61% 30.04 in - NE 11.5 mph - N/A   Clear
12:50 AM 75.2 °F 59.0 °F 57% 30.04 in - ENE 10.4 mph - N/A   Clear
1:20 AM 73.4 °F 59.0 °F 61% 30.04 in - ENE 11.5 mph - N/A   Clear
1:50 AM 73.4 °F 59.0 °F 61% 30.04 in - ENE 10.4 mph - N/A   Clear
2:20 AM 73.4 °F 59.0 °F 61% 30.01 in - NE 11.5 mph - N/A   Clear
2:50 AM 73.4 °F 59.0 °F 61% 30.01 in - NE 10.4 mph - N/A   Clear
3:00 AM 73 °F 59 °F 51% 30.02 in 6 mi NE 10.4 mph - -  
3:20 AM 73.4 °F 59.0 °F 61% 30.04 in - NE 11.5 mph - N/A   Clear
3:50 AM 71.6 °F 59.0 °F 64% 30.04 in - ENE 11.5 mph - N/A   Clear
4:20 AM 71.6 °F 59.0 °F 64% 30.04 in - ENE 10.4 mph - N/A   Clear
4:50 AM 71.6 °F 57.2 °F 60% 30.04 in - ENE 10.4 mph - N/A   Clear
5:20 AM 71.6 °F 57.2 °F 60% 30.04 in - NE 9.2 mph - N/A   Clear
5:50 AM 71.6 °F 55.4 °F 57% 30.04 in - NE 9.2 mph - N/A   Clear
6:20 AM 71.6 °F 55.4 °F 57% 30.04 in - NE 6.9 mph - N/A   Clear
6:50 AM 73.4 °F 55.4 °F 53% 30.06 in - NE 8.1 mph - N/A   Clear
7:20 AM 75.2 °F 55.4 °F 50% 30.06 in - NE 10.4 mph - N/A   Clear
7:50 AM 75.2 °F 55.4 °F 50% 30.06 in - NE 12.7 mph - N/A   Clear
8:20 AM 77.0 °F 57.2 °F 50% 30.06 in 6.2 mi NE 13.8 mph - N/A   Scattered Clouds
8:50 AM 78.8 °F 59.0 °F 51% 30.06 in 6.2 mi NE 12.7 mph - N/A   Scattered Clouds
9:00 AM 79 °F 57 °F 37% 30.08 in 6 mi NE 12.7 mph - -   Partly Cloudy
9:20 AM 78.8 °F 57.2 °F 47% 30.06 in 6.2 mi ENE 15.0 mph - N/A   Scattered Clouds
9:50 AM 78.8 °F 55.4 °F 44% 30.06 in 6.2 mi ENE 17.3 mph - N/A   Scattered Clouds
10:20 AM 80.6 °F 50.0 °F 34% 30.06 in 6.2 mi ENE 17.3 mph - N/A   Scattered Clouds
10:50 AM 80.6 °F 46.4 °F 30% 30.06 in 6.2 mi NE 19.6 mph - N/A   Scattered Clouds
11:20 AM 80.6 °F 50.0 °F 34% 30.06 in 6.2 mi NE 17.3 mph - N/A   Scattered Clouds
11:50 AM 80.6 °F 51.8 °F 37% 30.06 in 6.2 mi NE 16.1 mph - N/A   Scattered Clouds
12:20 PM 80.6 °F 50.0 °F 34% 30.06 in 6.2 mi NE 19.6 mph 31.1 mph N/A   Scattered Clouds
12:50 PM 82.4 °F 50.0 °F 32% 30.06 in 6.2 mi NE 17.3 mph 29.9 mph N/A   Scattered Clouds
1:20 PM 82.4 °F 50.0 °F 32% 30.06 in 6.2 mi NE 18.4 mph 31.1 mph N/A   Scattered Clouds
1:50 PM 82.4 °F 50.0 °F 32% 30.06 in 6.2 mi NE 19.6 mph - N/A   Scattered Clouds
2:20 PM 82.4 °F 50.0 °F 32% 30.06 in 6.2 mi NE 19.6 mph - N/A   Scattered Clouds
2:50 PM 84.2 °F 51.8 °F 33% 30.06 in 6.2 mi NE 18.4 mph - N/A   Scattered Clouds
3:00 PM 83 °F 49 °F 21% 30.08 in 6 mi NE 18.4 mph - -   Partly Cloudy
3:20 PM 82.4 °F 50.0 °F 32% 30.06 in 6.2 mi ENE 19.6 mph - N/A   Scattered Clouds
3:50 PM 84.2 °F 50.0 °F 30% 30.06 in 6.2 mi ENE 18.4 mph 32.2 mph N/A   Scattered Clouds
4:20 PM 84.2 °F 50.0 °F 30% 30.06 in 6.2 mi ENE 19.6 mph 31.1 mph N/A   Partly Cloudy
4:50 PM 82.4 °F 48.2 °F 30% 30.06 in 6.2 mi ENE 18.4 mph - N/A   Partly Cloudy
5:20 PM 80.6 °F 50.0 °F 34% 30.06 in 6.2 mi NE 18.4 mph - N/A   Partly Cloudy
5:50 PM 80.6 °F 51.8 °F 37% 30.06 in 6.2 mi NNE 21.9 mph - N/A   Partly Cloudy
6:20 PM 78.8 °F 51.8 °F 39% 30.04 in 6.2 mi NE 21.9 mph 33.4 mph N/A   Partly Cloudy
6:50 PM 78.8 °F 51.8 °F 39% 30.06 in 6.2 mi NE 19.6 mph 33.4 mph N/A   Partly Cloudy
7:20 PM 78.8 °F 53.6 °F 42% 30.06 in 6.2 mi NE 20.7 mph - N/A   Partly Cloudy
7:50 PM 78.8 °F 55.4 °F 44% 30.06 in - NE 18.4 mph - N/A   Clear
8:20 PM 77.0 °F 57.2 °F 50% 30.06 in - NE 15.0 mph - N/A   Clear
8:50 PM 77.0 °F 57.2 °F 50% 30.06 in - Variable 12.7 mph 25.3 mph N/A   Clear
9:00 PM 77 °F 56 °F 38% 30.07 in 6 mi NE 12.7 mph - -  
9:20 PM 77.0 °F 57.2 °F 50% 30.06 in - NE 13.8 mph - N/A   Clear
9:50 PM 75.2 °F 57.2 °F 53% 30.06 in - ENE 10.4 mph 21.9 mph N/A   Clear
10:20 PM 75.2 °F 57.2 °F 53% 30.06 in - ENE 9.2 mph - N/A   Clear
10:50 PM 75.2 °F 59.0 °F 57% 30.06 in - ENE 9.2 mph - N/A   Clear
11:20 PM 75.2 °F 59.0 °F 57% 30.06 in - ENE 9.2 mph - N/A   Clear
11:50 PM 75.2 °F 59.0 °F 57% 30.06 in - ENE 8.1 mph - N/A   Clear